www.dot.state.il.us - /desenv/hwystds/All Web 208 DGNs/


[To Parent Directory]

Tuesday, August 29, 2006 2:08 PM 25470464 1_Rev208_AllHighwayStandards_DGN.exe
Wednesday, August 30, 2006 2:25 PM 450560 1_Rev208_Div000_DGN.exe
Wednesday, August 30, 2006 2:26 PM 492544 1_Rev208_Div200_DGN.exe
Wednesday, August 30, 2006 2:26 PM 146944 1_Rev208_Div300_DGN.exe
Wednesday, August 30, 2006 2:28 PM 4764672 1_Rev208_Div400_DGN.exe
Wednesday, August 30, 2006 2:28 PM 4041728 1_Rev208_Div500_DGN.exe
Wednesday, August 30, 2006 2:29 PM 9354240 1_Rev208_Div600_DGN.exe
Wednesday, August 30, 2006 2:35 PM 3417088 1_Rev208_Div700_DGN.exe
Tuesday, August 29, 2006 2:19 PM 1921536 1_Rev208_Div800_DGN.exe
Tuesday, August 29, 2006 2:12 PM 1190912 1_Rev208_DivBLR_DGN.exe
Tuesday, June 27, 2006 1:21 PM 367616 208-000001-04_StandardSymbolsAbbreviations&Patterns.dgn
Tuesday, June 27, 2006 1:22 PM 60928 208-001001-01_AreasOfReinfRebars.dgn
Tuesday, June 27, 2006 1:23 PM 61440 208-001006_DecimalOfInch&Foot.dgn
Tuesday, June 27, 2006 1:24 PM 68096 208-202001_EarthMedDitchCheck.dgn
Tuesday, June 27, 2006 1:25 PM 363520 208-280001-03_TempErosionCntrlSystems.dgn
Tuesday, June 27, 2006 1:26 PM 111616 208-285001-01_FabricFormedConcRevetmentMats.dgn
Tuesday, June 27, 2006 1:27 PM 135680 208-353001-03_PCCBseCseWithHMABind&SurfCses.dgn
Tuesday, June 27, 2006 1:28 PM 143360 208-406001-04_EntrRampTermFlexPvmt.dgn
Tuesday, June 27, 2006 1:42 PM 275968 208-406101-03_ExitRampTerminalFlexiblePvmt.dgn
Tuesday, June 27, 2006 1:46 PM 115200 208-406201_MailboxTurnout.dgn
Tuesday, June 27, 2006 1:47 PM 245248 208-420001-06_PavementJoints.dgn
Tuesday, June 27, 2006 1:48 PM 86528 208-420101-03_24ftJointedPCCPvmt.dgn
Tuesday, June 27, 2006 1:48 PM 118272 208-420106-03_36ftJointedPCCPvmt.dgn
Tuesday, June 27, 2006 1:49 PM 117248 208-420111-01_PCCPvmtRoundouts.dgn
Tuesday, June 27, 2006 1:50 PM 231936 208-420201-05_EntrRampTerm-PCCAdjToPCC.dgn
Tuesday, June 27, 2006 1:51 PM 236544 208-420206-06_EntrRampTerm-PCCAdjToCRC.dgn
Tuesday, June 27, 2006 1:52 PM 294400 208-420301-03_ExitRampTerm-PCCAdjToPCC.dgn
Tuesday, June 27, 2006 1:53 PM 300544 208-420306-05_ExitRampTerm-PCCAdjToCRC.dgn
Tuesday, June 27, 2006 1:55 PM 313344 208-420401-05_BridgeApproachPvmt.dgn
Tuesday, June 27, 2006 1:56 PM 106496 208-420501-03_PCCPvmt&PCCBseCseAdjToRRGradeXing.dgn
Tuesday, June 27, 2006 1:57 PM 97792 208-420601-04_24ftPCCPvmt.dgn
Tuesday, June 27, 2006 1:58 PM 83968 208-420701-01_PavementFabric.dgn
Tuesday, June 27, 2006 1:58 PM 73728 208-421001-01_BarReinfForCRCPvmt.dgn
Tuesday, June 27, 2006 1:59 PM 357376 208-421101-06_24ftCRCPvmt-wWideFlangeBeamTermJt.dgn
Tuesday, June 27, 2006 2:00 PM 336384 208-421106-06_36ftCRCPvmt-wWideFlangeBeamTermJt.dgn
Tuesday, June 27, 2006 2:01 PM 337920 208-421201-05_24ftCRCPvmt-wLugSys.dgn
Tuesday, June 27, 2006 2:02 PM 350208 208-421206-05_36ftCRCPvmt-wLugSys.dgn
Tuesday, June 27, 2006 2:09 PM 238080 208-424001-04_CurbRampsForSidewalk.dgn
Tuesday, June 27, 2006 2:10 PM 145920 208-442001-03_ClassAPatches.dgn
Tuesday, June 27, 2006 2:11 PM 296960 208-442101-06_ClassBPatches.dgn
Tuesday, June 27, 2006 2:12 PM 170496 208-442201-02_ClassC&DPatches.dgn
Tuesday, June 27, 2006 2:13 PM 107008 208-482001-01_HMAShldAdjToFlexPvmt.dgn
Tuesday, June 27, 2006 2:33 PM 58368 208-482006-02_HMAShldAdjToRigidPvmt.dgn
Tuesday, June 27, 2006 2:34 PM 158208 208-482011-02_HMAShldStrips(Shlds)wResurfOrWiden&ResurfProj.dgn
Tuesday, June 27, 2006 2:35 PM 147968 208-483001-03_PCCShld.dgn
Tuesday, June 27, 2006 2:35 PM 89088 208-503001-02_ConcParapetSlip-FormingOpt.dgn
Tuesday, June 27, 2006 2:37 PM 189440 208-509001_TubularThrieBeamRetrofitRailForBridge.dgn
Tuesday, June 27, 2006 2:38 PM 96256 208-515001-02_NamePlateForBridges.dgn
Tuesday, June 27, 2006 2:39 PM 72192 208-542001-01_ReinfConcEndSect-wParallelWngwalls12-48inDiaRtAngle.dgn
Tuesday, June 27, 2006 2:41 PM 79872 208-542101-01_ReinfConcEndSectForPipeCulv15-36inDiaRtAngle.dgn
Tuesday, June 27, 2006 2:42 PM 111104 208-542106-01_ReinfConcEndSectForPipeCulv42-60inDiaRtAngle.dgn
Tuesday, June 27, 2006 2:43 PM 138240 208-542111-01_ReinfConcEndSectForPipeCulv66-84inDiaRtAngle.dgn
Tuesday, June 27, 2006 2:45 PM 148992 208-542116-01_ReinfConcEndSectForMultPipeCulv15-36inDiaRtAngle.dgn
Tuesday, June 27, 2006 2:46 PM 161280 208-542121-01_ReinfConcEndSectForMultPipeCulv42-60inDiaRtAngle.dgn
Thursday, June 29, 2006 1:12 PM 267776 208-542201-01_ReinfConcEndSectForPipeCulv15-36inDiaSkewed.dgn
Tuesday, June 27, 2006 2:50 PM 162304 208-542206_ReinfConcEndSectForPipeCulv42-60inDiaSkewed.dgn
Tuesday, June 27, 2006 2:51 PM 81920 208-542301-01_PrecastReinfConcFlaredEndSect.dgn
Tuesday, June 27, 2006 2:52 PM 83456 208-542306-01_PrecastReinfConcEllipticalFlaredEndSect.dgn
Tuesday, June 27, 2006 2:53 PM 228352 208-542311_GratingForConcFlaredEndSection24-54inPipe.dgn
Tuesday, June 27, 2006 2:53 PM 84992 208-542401_MetalEndSectForPipeCulv.dgn
Tuesday, June 27, 2006 2:54 PM 84480 208-542406_MetalEndSectForPipeArch.dgn
Tuesday, June 27, 2006 2:55 PM 196608 208-542501-01_InletBoxTypeA24in.dgn
Tuesday, June 27, 2006 3:34 PM 212480 208-542506-01_InletBoxTypeB24in.dgn
Tuesday, June 27, 2006 3:35 PM 225280 208-542511-01_InletBoxTypeC24in.dgn
Tuesday, June 27, 2006 3:36 PM 247808 208-542516-01_InletBoxTypeD24in.dgn
Tuesday, June 27, 2006 3:37 PM 261120 208-542521-01_InletBoxTypeE24in.dgn
Tuesday, June 27, 2006 3:38 PM 253440 208-542526-01_InletBoxTypeF24in.dgn
Tuesday, June 27, 2006 3:39 PM 245760 208-542531-02_InletBoxTypeG24in.dgn
Tuesday, June 27, 2006 3:40 PM 306176 208-542536-01_InletBoxTypeA36in.dgn
Tuesday, June 27, 2006 3:41 PM 291840 208-542541-01_InletBoxTypeA48in.dgn
Tuesday, June 27, 2006 3:44 PM 235520 208-542546_FlushInletBoxForMedian.dgn
Tuesday, June 27, 2006 3:46 PM 50176 208-542601_RCPipeElbow.dgn
Tuesday, June 27, 2006 3:46 PM 165376 208-542606_RCPipeTee.dgn
Tuesday, June 27, 2006 3:47 PM 205312 208-601001-01_SubSurfDrains.dgn
Tuesday, June 27, 2006 3:49 PM 55296 208-601101_ConcHdwForPipeDrain.dgn
Tuesday, June 27, 2006 3:52 PM 105472 208-602001_CatchBasin-TypeA.dgn
Tuesday, June 27, 2006 3:53 PM 153088 208-602006-01_CatchBasin-TypeB.dgn
Tuesday, June 27, 2006 3:59 PM 82432 208-602011_CatchBasin-TypeC.dgn
Tuesday, June 27, 2006 4:02 PM 134656 208-602016_CatchBasin-TypeD.dgn
Tuesday, June 27, 2006 4:03 PM 215040 208-602101-01_DrainStruc-Type1&2&3.dgn
Tuesday, June 27, 2006 4:19 PM 215552 208-602106_DrainStruc-Type4&5&6.dgn
Wednesday, June 28, 2006 8:19 AM 68608 208-602301-01_Inlet-TypeA.dgn
Wednesday, June 28, 2006 8:21 AM 136192 208-602306-01_Inlet-TypeB.dgn
Wednesday, June 28, 2006 8:23 AM 124928 208-602401-01_Manhole-TypeA.dgn
Wednesday, June 28, 2006 8:34 AM 114176 208-602406-02_Manhole-TypeA72inDia.dgn
Wednesday, June 28, 2006 8:35 AM 138752 208-602411_Manhole-TypeA7inDia.dgn
Wednesday, June 28, 2006 8:36 AM 139264 208-602416_Manhole-TypeA8inDia.dgn
Wednesday, June 28, 2006 8:37 AM 139264 208-602421_Manhole-TypeA9inDia.dgn
Wednesday, June 28, 2006 8:37 AM 108032 208-602501_ValveVault-TypeA.dgn
Wednesday, June 28, 2006 8:39 AM 91136 208-602601-01_PrecastReinfConcFlatSlabTop.dgn
Wednesday, June 28, 2006 8:40 AM 92160 208-602701-01_CastIronSteps.dgn
Wednesday, June 28, 2006 8:40 AM 84992 208-604001-02_Frame&Lids-Type1.dgn
Wednesday, June 28, 2006 8:41 AM 104448 208-604006-02_Frame&GrateType3.dgn
Wednesday, June 28, 2006 8:42 AM 114176 208-604011-02_Frame&GrateType3V.dgn
Wednesday, June 28, 2006 8:42 AM 77312 208-604016-01_Frame&GrateType4.dgn
Wednesday, June 28, 2006 8:43 AM 92160 208-604021-01_BaseFrame&LidsType5.dgn
Wednesday, June 28, 2006 8:44 AM 93184 208-604026-01_Frame&GrateType6.dgn
Wednesday, June 28, 2006 8:45 AM 52736 208-604031-01_GrateType7.dgn
Wednesday, June 28, 2006 8:45 AM 61440 208-604036-01_GrateType8.dgn
Wednesday, June 28, 2006 8:46 AM 87040 208-604041-01_Frame&GrateType9.dgn
Wednesday, June 28, 2006 8:47 AM 70144 208-604046-01_Frame&GrateType10.dgn
Wednesday, June 28, 2006 8:48 AM 130560 208-604051-02_Frame&GrateType11.dgn
Wednesday, June 28, 2006 8:49 AM 131072 208-604056-02_Frame&GrateType11V.dgn
Wednesday, June 28, 2006 8:49 AM 76288 208-604061-01_Frame&GrateType12.dgn
Wednesday, June 28, 2006 8:50 AM 94208 208-604066-01_Frame&LidType15.dgn
Wednesday, June 28, 2006 8:51 AM 97792 208-604071-03_Frame&GrateType20.dgn
Wednesday, June 28, 2006 8:52 AM 155648 208-604076-03_Frame&GrateType21.dgn
Wednesday, June 28, 2006 8:53 AM 157184 208-604081-03_Frame&GrateType22.dgn
Wednesday, June 28, 2006 8:54 AM 150528 208-604086-01_Frame&GrateType23.dgn
Wednesday, June 28, 2006 8:54 AM 128512 208-604091-01_Frame&GrateType24.dgn
Wednesday, June 28, 2006 8:57 AM 133632 208-604101_MedianInletFor24inRCPipe.dgn
Wednesday, June 28, 2006 8:58 AM 137216 208-604106_MedianInletFor36inRCPipe.dgn
Wednesday, June 28, 2006 8:59 AM 165888 208-606001-03_ConcCurbTypeB&ComboConcC&G.dgn
Wednesday, June 28, 2006 9:01 AM 219648 208-606006-01_OutletsForConcC&G-TypeB-6.24.dgn
Wednesday, June 28, 2006 9:02 AM 144384 208-606101-02_TypeAGut-InlOutl&Entr.dgn
Wednesday, June 28, 2006 9:31 AM 118272 208-606106-03_OutlType1ForTypeAGut.dgn
Wednesday, June 28, 2006 9:31 AM 131072 208-606111-02_OutlType2ForTypeAGut.dgn
Wednesday, June 28, 2006 9:34 AM 127488 208-606201-01_TypeBGut-InlOutl&Entr.dgn
Wednesday, June 28, 2006 9:35 AM 99840 208-606206-02_OutlType1ForTypeBGut.dgn
Wednesday, June 28, 2006 9:36 AM 118272 208-606211-02_OutlType2ForTypeBGut.dgn
Wednesday, June 28, 2006 9:37 AM 199168 208-606301-03_PCCIslands&Medians.dgn
Wednesday, June 28, 2006 9:37 AM 93184 208-606306-02_CorrugatedPCCMedians.dgn
Wednesday, June 28, 2006 9:38 AM 108544 208-606401_PavedDitch.dgn
Wednesday, June 28, 2006 9:39 AM 177152 208-609001-03_BridgeApproachShldPvmt&Drain.dgn
Wednesday, June 28, 2006 9:58 AM 203776 208-609006-03_BridgeApproachPvmt(DrainDetail).dgn
Wednesday, June 28, 2006 10:21 AM 195584 208-610001-03_ShldInletWithCurb.dgn
Thursday, June 29, 2006 1:16 PM 221184 208-630001-07_SteelPlateBeamGrdrail.dgn
Thursday, June 29, 2006 1:17 PM 137728 208-630101-07_GuardrailMountedOnExCulv.dgn
Thursday, June 29, 2006 1:18 PM 96256 208-630201-04_PCC-BitStb@SteelPlateBeamGrdRail.dgn
Thursday, June 29, 2006 1:19 PM 89600 208-630301-04_ShldWidenForType1GrdrailTerms.dgn
Thursday, June 29, 2006 1:19 PM 125952 208-631006-04_TrafBarTermType1B.dgn
Thursday, June 29, 2006 1:20 PM 110592 208-631011-03_TrafBarTermType2.dgn
Monday, August 07, 2006 1:46 PM 161280 208-631026-03_TrafBarTermType5.dgn
Thursday, June 29, 2006 1:23 PM 224256 208-631031-06_TrafBarTermType6.dgn
Thursday, June 29, 2006 1:24 PM 245248 208-631032-03_TrafBarTermType6A.dgn
Thursday, June 29, 2006 1:25 PM 177664 208-631033-02_TrafBarTermType6B.dgn
Thursday, June 29, 2006 1:30 PM 125952 208-631036-04_TrafBarTermType8.dgn
Thursday, June 29, 2006 1:31 PM 112128 208-631041-01_TrafBarTermType9.dgn
Thursday, June 29, 2006 1:32 PM 107008 208-631046-03_TrafBarTermType10.dgn
Thursday, June 29, 2006 2:05 PM 105984 208-631051-01_TrafBarTermType11.dgn
Thursday, June 29, 2006 2:07 PM 81408 208-631056-01_TrafBarTermType12.dgn
Thursday, June 29, 2006 2:08 PM 84992 208-635001_Delineators.dgn
Thursday, June 29, 2006 2:09 PM 84480 208-635006-02_Reflector&TermMrkrPlacemnt.dgn
Thursday, June 29, 2006 2:10 PM 156160 208-635011-01_ReflectorMrkr&MountDetails.dgn
Thursday, June 29, 2006 2:11 PM 251392 208-636001-01_CableRdGrd-SingleStrand.dgn
Thursday, June 29, 2006 2:12 PM 139776 208-637001-02_ConcBarrierDblFace32in.dgn
Thursday, June 29, 2006 2:13 PM 144384 208-637006_ConcBarrierDblFace42in.dgn
Thursday, June 29, 2006 2:14 PM 89600 208-638001-01_GlareScreenBlades.dgn
Thursday, June 29, 2006 2:14 PM 80384 208-638101-01_ConcGlareScreen.dgn
Thursday, June 29, 2006 2:15 PM 125952 208-639001-01_Sightscrn-PrecstPrestressConcPanelWall.dgn
Thursday, June 29, 2006 2:40 PM 186880 208-640001_Sightscrn-ChainLinkFence.dgn
Thursday, June 29, 2006 2:41 PM 105472 208-641001_Sightscrn-CedarStckadeFenceTypeS.dgn
Thursday, June 29, 2006 2:55 PM 83968 208-641006_Sightscrn-WoodPlankFenceTypeP.dgn
Thursday, June 29, 2006 2:57 PM 136192 208-642001_ShldRumbleStrips.dgn
Thursday, June 29, 2006 2:58 PM 399872 208-664001-01_ChainLinkFence.dgn
Thursday, June 29, 2006 3:00 PM 392192 208-665001-01_WovenWireFence.dgn
Thursday, June 29, 2006 3:02 PM 66048 208-666001_ROWMrkrs.dgn
Thursday, June 29, 2006 3:04 PM 70656 208-667001_DrainageMrkrs.dgn
Thursday, June 29, 2006 3:06 PM 111616 208-667101_PermanentSurveyMrkrs.dgn
Thursday, June 29, 2006 3:07 PM 68608 208-668001_MethOfResetting-USGS&NGS-Benchmarks.dgn
Thursday, June 29, 2006 3:08 PM 55808 208-701001-01_OffRdOp-2L2W-15ftMinFromEOP-45MPH+.dgn
Thursday, June 29, 2006 3:08 PM 60928 208-701006-02_OffRdOp-2L2W-15ftToEOP-45MPH+.dgn
Thursday, June 29, 2006 3:09 PM 61952 208-701011-01_OffRdMovingOp-2L2W-DayOnly-45MPH+.dgn
Thursday, June 29, 2006 3:12 PM 62464 208-701101-01_OffRdOp-MultiLn-LessThan15ftToEOP.dgn
Thursday, June 29, 2006 3:13 PM 56320 208-701106-01_OffRdOp-MultiLn-MoreThan15ftAway.dgn
Thursday, June 29, 2006 3:13 PM 65024 208-701201-02_LnClosure2L2W-DayOnly.dgn
Thursday, June 29, 2006 3:14 PM 63488 208-701206-01_LnClosure2L2W-NightOnly45MPH+.dgn
Thursday, June 29, 2006 3:14 PM 65024 208-701301-02_LnClosure2L2W-ShortTimeOp.dgn
Thursday, June 29, 2006 3:15 PM 64000 208-701306-01_LnClosure2L2W-SlowMoveOpDayOnly45MPH+.dgn
Thursday, June 29, 2006 3:16 PM 66048 208-701311-02_LnClosure2L2W-MovingOpDayOnly.dgn
Thursday, June 29, 2006 3:17 PM 127488 208-701316-03_LnClosure2L2W-BridgeRepair45MPH+.dgn
Thursday, June 29, 2006 3:17 PM 139264 208-701321-08_LnClosure2L2W-BridgeRepair+Barrier.dgn
Thursday, June 29, 2006 3:18 PM 72704 208-701326-02_LnClosure2L2W-PvmtWidening45MPH+.dgn
Thursday, June 29, 2006 3:19 PM 89088 208-701331-02_LnClosure2L2W+RunAround45MPH+.dgn
Thursday, June 29, 2006 3:19 PM 73728 208-701336-04_LnClosure2L2W-WorkAreasInSeries45MPH+.dgn
Thursday, June 29, 2006 3:20 PM 72192 208-701400-02_ApprchToLnClosure-FrwayExpway.dgn
Thursday, June 29, 2006 3:21 PM 82432 208-701401-03_LnClosureFrwayExpway.dgn
Thursday, June 29, 2006 3:21 PM 75776 208-701402-05_LnClosureFrwayExpway+Barrier.dgn
Thursday, June 29, 2006 3:22 PM 80384 208-701406-04_LnClosureFrwayExpway-DayOpOnly.dgn
Thursday, June 29, 2006 3:23 PM 116736 208-701411-03_LnClosureMultiLn-EntrOrExitRamp45MPH+.dgn
Thursday, June 29, 2006 3:23 PM 96256 208-701416-05_LnClosureFrwayExpway+Crossover&Barrier.dgn
Thursday, June 29, 2006 3:24 PM 84480 208-701421-01_LnClosureMultiLn-DayOpOnly45-55MPH.dgn
Thursday, June 29, 2006 3:25 PM 86528 208-701422-01_LnClosureMultiLn-45-55MPH.dgn
Thursday, June 29, 2006 3:25 PM 87040 208-701423-01_LnClosureMultiLn+Barrier45-55MPH.dgn
Thursday, June 29, 2006 3:26 PM 81408 208-701426-02_LnClosureMultiLn-IntermittantOrMovingOp45MPH+.dgn
Thursday, June 29, 2006 3:27 PM 95744 208-701431-03_LnClosureMultiLnUndivided+Crossover45-55MPH.dgn
Thursday, June 29, 2006 3:28 PM 91136 208-701446_TwoLnClosure-FrwayExpway.dgn
Friday, June 30, 2006 8:22 AM 75264 208-701501-03_UrbanLnClosure2L2W-Undivided.dgn
Friday, June 30, 2006 8:23 AM 95232 208-701502-01_UrbanLnClosure2L2W+BidirectLeftTurnLn.dgn
Friday, June 30, 2006 8:27 AM 89088 208-701601-04_UrbanLnClosureMultiLn1W2W+NontrvsableMed.dgn
Friday, June 30, 2006 8:28 AM 160768 208-701602-02_UrbanLnClosureMultiLn2W+BidirectLeftTurnLn.dgn
Friday, June 30, 2006 8:29 AM 118784 208-701606-04_UrbanLnClosureMultiLn2W+MountableMed.dgn
Friday, June 30, 2006 8:30 AM 88576 208-701701-04_UrbanLnClosureMultiLnIntersection.dgn
Friday, June 30, 2006 8:31 AM 78336 208-701801-03_LnClosureMultiLn1W2W+CrosswalkOrSWClosure.dgn
Friday, June 30, 2006 8:56 AM 228352 208-702001-06_TrafCntrlDevices.dgn
Friday, June 30, 2006 8:57 AM 221184 208-704001-03_TempConcBarrier.dgn
Friday, June 30, 2006 9:00 AM 72192 208-720001_SignPanelMountDetails.dgn
Friday, June 30, 2006 9:01 AM 153600 208-720006-01_SignPanelErectDetails.dgn
Friday, June 30, 2006 9:05 AM 53760 208-720011_MetalPostsForSignsMrkrs&Delineators.dgn
Friday, June 30, 2006 9:05 AM 75264 208-720016-01_MastArmMountedStNameSigns.dgn
Friday, June 30, 2006 9:06 AM 170496 208-720021-01_SignPanels-ExtrudedAlumType.dgn
Friday, June 30, 2006 9:07 AM 153600 208-728001_TelescopingSteelSignSupport.dgn
Friday, June 30, 2006 9:09 AM 62464 208-729001_AppOfTypesA&BPosts.dgn
Friday, June 30, 2006 9:10 AM 153600 208-731001_BaseForTelescopingSteelSignSupport.dgn
Friday, June 30, 2006 9:56 AM 168448 208-780001-01_TypicalPvmtMrkings.dgn
Friday, June 30, 2006 9:58 AM 80896 208-781001-02_TypicalAppRaisedReflcPvmtMrkrs.dgn
Friday, June 30, 2006 9:59 AM 79872 208-805001_ElecSrvcInstallDetails.dgn
Friday, June 30, 2006 10:00 AM 101888 208-814001-01_Handholes.dgn
Friday, June 30, 2006 10:01 AM 162816 208-814006-01_DoubleHandholes.dgn
Friday, June 30, 2006 10:44 AM 83968 208-857001_StdPhaseDesignationDiagrams&PhaseSeq.dgn
Friday, June 30, 2006 10:45 AM 61440 208-857006_SupervisedRRInterconnectCircuit-.dgn
Friday, June 30, 2006 10:46 AM 83968 208-862001_UPS.dgn
Monday, July 24, 2006 8:58 AM 744448 208-873001-01_TrafSignalGround&Bond.dgn
Friday, June 30, 2006 10:48 AM 169984 208-876001_PedestrianPushButtonPost.dgn
Friday, June 30, 2006 10:48 AM 84992 208-877001-02_SteelMastArmAssembly&Pole.dgn
Friday, June 30, 2006 10:49 AM 84992 208-877006-02_SteelMastArmAssembly&Pole+DualMastArms.dgn
Friday, June 30, 2006 10:52 AM 99328 208-877011-02_SteelComboMastArmAssembly&Pole.dgn
Friday, June 30, 2006 10:53 AM 169984 208-878001-05_ConcreteFoundationDetails.dgn
Friday, June 30, 2006 10:54 AM 100864 208-880001_SpanWireMountSignals&FlashBeaconInstall.dgn
Friday, June 30, 2006 10:54 AM 83456 208-880006_TrfSignalMountDetails-Post&BracketMount.dgn
Friday, June 30, 2006 10:57 AM 153088 208-886001_DetectorLoopInstallations.dgn
Friday, June 30, 2006 10:58 AM 49664 208-886006_TypicalLayoutsForDetectionLoops.dgn
Friday, June 30, 2006 11:00 AM 66048 208-BLR02-2_CombSect&ROWMarkers.dgn
Friday, June 30, 2006 11:00 AM 70144 208-BLR06-5_SectMarkers.dgn
Friday, June 30, 2006 11:01 AM 217088 208-BLR10-5_PCCPvmtSpecial-NonReinf.dgn
Friday, June 30, 2006 11:02 AM 161792 208-BLR14-9_PCCPvmt-NonReinf.dgn
Friday, June 30, 2006 11:04 AM 281088 208-BLR17-3_TrafCntrlDevices-DayLaborConstr.dgn
Friday, June 30, 2006 11:05 AM 60416 208-BLR18-4_TrafCntrlDevices-DayLaborMaint.dgn
Friday, June 30, 2006 11:07 AM 150016 208-BLR20-4_TrafBarrierTermType5R.dgn
Friday, June 30, 2006 11:07 AM 58368 208-BLR21-6_TypAppTrafCntrlDevices-ConstrOnRuralLocalHwys.dgn
Friday, June 30, 2006 11:08 AM 58368 208-BLR22-4_TypAppTrafCntrlDevices-ConstrOnRuralLocalHwys(2L2W-RdClsdToThruTraf).dgn
Friday, June 30, 2006 11:09 AM 172032 208-BLR23-1_TrafBarrierTermType1.dgn
Friday, June 30, 2006 11:10 AM 119296 208-BLR24-1_MailboxTurn-LocalRds.dgn
Friday, June 30, 2006 11:22 AM 36352 208-BLR25_Type1ABarrForNonNHSRts.dgn